Temperature
19 19 19 18 18 18 18 18 18 18 17 17 17 16 16 16 16 15 15 14 13 13 13 13 13 14 14 14 14 14 14 14 15 15 15 16 16 17 17 17 17 17 17
19 19 19 19 18 18 18 18 18 18 17 17 17 16 16 16 16 15 15 14 13 13 13 13 13 13 13 13 13 13 13 14 14 14 15 15 16 17 17 17 17 17 16
20 19 19 19 19 19 19 19 18 18 17 17 16 16 16 16 15 15 15 14 14 13 12 12 12 12 13 13 13 13 13 13 14 14 14 15 15 15 16 17 17 16 16
20 20 20 20 20 19 19 19 18 18 17 17 16 16 16 15 15 15 14 14 13 13 12 12 12 12 12 12 12 13 13 13 13 13 14 14 14 14 15 16 16 16 16
21 21 20 20 20 20 20 19 18 18 17 17 16 16 15 15 15 15 14 14 13 13 13 12 12 12 12 12 12 12 12 12 12 12 13 13 14 14 14 14 15 16 16
22 22 21 21 21 21 20 20 19 18 17 17 16 15 15 15 15 15 14 14 13 14 13 13 12 12 12 12 12 12 11 11 12 12 12 12 13 13 14 14 14 15 15
23 22 22 22 21 21 21 20 19 18 17 17 16 16 15 15 14 14 14 13 13 14 13 13 13 12 12 12 11 11 11 11 11 11 12 12 12 12 13 13 13 14 14
24 23 23 22 22 21 21 20 19 18 17 17 16 16 15 15 14 14 14 14 13 13 13 13 12 12 12 11 11 11 11 11 11 11 11 11 12 12 12 13 13 13 14
25 24 23 23 22 21 21 20 19 18 18 17 16 16 15 15 15 14 14 13 13 13 13 12 12 12 11 11 11 11 11 11 11 11 11 11 11 12 12 12 12 13 13
25 25 24 23 22 21 21 20 19 18 17 17 16 16 15 15 14 14 13 13 13 13 13 12 12 12 11 11 11 11 11 11 11 11 11 11 11 11 11 11 12 12 12
26 25 24 24 23 22 21 20 19 18 17 17 16 16 15 15 14 14 13 13 13 12 12 12 12 12 11 11 11 11 11 11 11 11 11 11 11 11 11 11 11 11 12
26 26 24 23 23 22 21 20 19 18 18 17 16 16 15 15 14 14 13 13 13 12 12 12 12 11 11 11 11 11 11 11 10 10 10 10 10 10 10 10 10 11 11
26 26 24 23 22 22 21 20 19 19 18 17 17 16 15 15 14 14 14 13 13 13 12 12 12 11 11 11 11 11 11 10 10 10 10 10 10 10 10 10 10 10 10
26 25 24 23 22 22 21 20 20 19 18 18 17 16 16 15 15 14 14 13 13 13 12 12 12 11 11 11 11 10 10 10 10 10 10 10 10 10 10 10 10 10 10
26 25 24 23 22 21 21 20 19 19 18 18 17 17 16 16 15 15 14 14 13 13 12 12 11 11 11 11 11 11 10 10 10 10 10 10 10 10 10 10 10 10 10
26 25 24 23 22 21 20 20 19 19 18 18 18 17 16 16 16 15 15 14 13 13 12 12 12 11 11 11 11 10 10 10 10 10 10 10 10 10 10 10 10 10 10
26 25 24 23 22 21 21 20 20 19 18 18 18 17 17 16 16 15 15 14 14 13 13 12 12 11 11 10 10 10 10 10 10 10 10 9 9 10 10 10 9 9 9
26 26 25 24 23 22 21 20 20 19 19 18 18 17 17 16 16 15 15 14 14 13 13 12 12 12 11 11 10 10 10 10 10 10 10 10 10 10 10 9 9 9 9
26 25 25 24 23 23 22 21 20 19 19 18 18 18 17 16 16 16 15 15 14 14 13 13 12 12 11 11 10 10 10 10 10 10 10 9 9 10 9 9 9 9 9
25 25 25 24 24 23 22 21 21 20 19 19 18 18 17 16 16 16 16 15 15 14 14 13 12 12 11 11 10 10 10 9 10 10 10 10 10 10 9 9 9 9 9
24 24 24 24 24 23 22 22 21 20 19 19 18 17 17 17 16 16 16 15 15 14 13 13 13 12 12 11 11 10 10 10 9 9 9 9 9 10 9 9 9 9 9
23 23 22 23 23 22 22 21 20 20 19 18 18 17 17 16 16 15 15 15 15 14 13 13 13 12 12 12 11 11 10 10 9 9 9 9 9 9 9 9 9 8 8
20 21 21 21 21 21 20 20 19 18 18 17 17 17 16 16 16 15 15 14 14 13 13 13 12 12 12 12 11 11 10 10 9 9 9 9 9 9 8 8 8 8 8
18 19 19 19 19 19 18 18 18 17 17 17 16 16 16 15 15 15 14 14 13 13 13 13 12 12 12 12 11 11 10 10 9 9 9 9 8 8 8 8 8 8 8
17 17 17 17 17 17 17 16 16 16 16 16 15 15 15 14 14 14 14 14 13 13 13 13 12 12 12 11 11 10 10 9 9 8 8 8 8 8 8 8 8 8 8
16 16 15 15 15 15 15 15 15 15 15 14 14 14 14 14 14 14 14 14 14 14 13 13 12 12 12 11 11 10 10 9 9 9 8 8 8 8 8 8 8 8 8
Wind_Speed
10 10 11 12 12 10 9 8 7 6 3 2 0 1 2 2 2 2 7 4 5 7 7 4 5 5 4 5 6 5 6 5 4 4 5 6 8 8 7 6 5 5 8
10 10 9 11 12 10 9 8 7 7 5 3 2 1 1 2 2 1 3 3 4 5 6 6 5 6 6 5 4 4 4 5 5 4 5 5 5 4 4 3 4 5 2
12 12 11 11 11 11 10 9 9 7 6 4 2 2 1 2 1 1 2 4 3 3 4 4 4 5 6 5 5 5 5 4 6 5 3 3 4 6 4 3 1 2 2
13 13 12 12 11 11 11 9 8 7 6 4 3 3 3 3 2 1 1 2 2 3 2 2 4 4 5 6 6 7 6 6 5 6 4 3 3 3 4 5 3 2 3
14 14 14 13 12 11 10 10 9 8 6 5 4 3 3 3 3 4 3 2 3 4 4 1 1 3 5 4 5 6 6 5 5 5 6 6 5 4 5 6 5 4 3
13 14 13 11 10 9 8 9 9 8 6 5 4 3 3 2 3 4 5 4 4 3 3 3 2 2 4 4 5 5 6 5 6 5 5 6 5 5 4 5 6 5 4
13 13 12 11 10 9 8 8 9 8 7 6 5 4 3 3 5 6 6 4 4 2 2 2 1 3 4 4 5 5 6 6 6 5 5 5 5 6 5 5 6 7 6
14 14 13 11 10 10 8 8 9 8 7 6 5 4 3 4 4 2 2 4 4 4 1 1 3 4 5 6 5 5 6 6 5 7 6 5 6 6 6 5 6 7 6
14 14 13 12 10 8 8 7 8 8 7 6 6 6 5 5 5 4 5 5 4 5 3 3 4 5 5 6 6 6 7 7 6 6 6 5 5 5 5 5 5 6 7
12 12 12 11 10 9 8 7 8 7 6 6 6 6 7 7 6 6 6 6 6 6 6 6 6 6 6 6 6 6 7 7 6 6 7 6 6 5 5 5 6 5 6
12 12 10 10 10 10 10 8 8 8 7 6 6 5 4 4 5 6 7 7 7 7 6 7 7 7 7 7 7 7 8 8 8 8 8 8 7 6 6 6 6 6 6
10 11 11 10 9 9 10 10 9 9 8 8 7 7 6 6 6 7 7 6 7 7 7 7 7 8 8 7 7 8 8 8 8 8 8 8 8 8 6 6 7 7 7
8 8 10 10 9 9 9 10 11 10 10 9 8 8 7 7 7 7 6 6 6 6 6 7 7 7 7 7 7 8 8 8 8 8 8 8 8 8 7 7 7 7 8
8 7 9 9 9 8 8 8 9 9 9 8 8 8 7 7 6 6 6 6 6 6 7 7 7 7 7 8 8 8 8 8 8 8 8 9 9 9 8 8 8 8 7
9 8 8 9 9 8 9 8 8 8 8 7 7 7 7 7 7 6 6 6 6 8 7 7 7 7 8 9 7 6 8 6 7 7 8 10 11 11 9 9 7 6 6
8 10 10 11 11 10 10 10 9 9 8 8 7 7 6 6 6 6 6 7 7 7 6 7 7 8 10 4 2 3 6 7 8 9 9 10 11 13 15 16 14 11 9
7 9 11 11 12 12 11 11 10 10 10 9 8 7 7 7 7 7 6 5 6 6 7 7 7 8 9 9 8 9 7 9 9 9 9 12 13 10 8 10 14 15 17
4 6 9 11 13 13 13 11 11 11 11 10 10 9 8 7 7 6 6 6 5 6 6 7 8 8 10 11 11 11 9 10 10 11 11 11 11 13 10 8 9 9 10
2 3 6 10 11 13 13 13 12 12 12 12 11 10 9 8 7 6 6 5 5 6 7 8 9 9 9 11 12 12 8 9 11 12 12 12 11 13 12 9 9 9 9
1 3 6 6 7 9 11 13 13 12 13 12 11 10 9 8 7 7 6 6 6 7 8 9 9 9 9 10 12 13 9 10 10 10 11 14 14 14 12 9 9 9 9
5 3 2 3 4 5 7 9 10 11 10 9 9 9 9 9 8 7 7 6 7 8 9 9 9 9 11 12 14 16 10 10 10 9 8 6 7 10 12 11 9 10 7
11 8 5 4 3 1 4 6 7 7 6 7 8 8 9 9 9 9 8 8 8 9 10 10 11 10 11 13 14 18 18 14 10 9 8 5 3 5 9 9 10 11 8
14 12 10 9 8 6 2 3 4 4 5 6 7 7 8 8 8 8 9 8 8 10 10 9 9 8 7 8 15 17 18 18 12 10 11 9 9 8 9 14 15 11 9
14 14 14 12 10 10 8 6 4 4 5 6 6 7 7 9 9 8 9 9 9 10 9 8 7 6 5 4 4 5 8 11 11 11 12 14 16 14 14 12 11 10 11
12 12 11 10 10 10 9 8 7 5 6 7 7 9 10 10 9 10 10 11 10 10 9 7 6 6 7 2 2 1 4 4 2 4 6 9 9 9 9 10 10 10 10
11 11 11 11 10 9 9 8 7 7 7 7 8 9 10 10 10 10 11 17 18 18 18 16 13 9 9 9 9 8 8 6 4 4 9 11 11 11 10 9 9 9 10
Wind_Direction
139 141 143 144 144 143 144 153 153 144 162 157 129 25 44 357 1 89 93 41 16 9 326 342 351 334 343 345 332 340 324 306 283 283 289 278 260 246 234 231 236 240 234
146 151 155 160 156 157 160 164 169 170 183 165 165 189 250 285 273 64 126 100 42 355 341 25 340 351 342 316 321 328 315 312 321 314 308 304 296 333 270 214 220 233 239
162 163 174 173 168 170 176 185 182 176 185 183 225 266 220 273 297 45 65 69 26 339 341 341 341 346 326 339 345 331 329 320 315 299 296 308 332 338 319 322 249 208 228
167 170 182 182 184 183 186 187 177 179 181 192 230 271 291 307 331 344 73 62 304 279 307 334 349 348 326 324 330 19 342 329 318 318 313 296 306 300 315 323 320 250 230
176 180 188 189 194 194 190 182 173 175 181 195 212 238 287 326 357 8 352 322 264 227 221 201 353 331 305 328 353 334 329 319 313 322 327 324 310 267 264 292 305 303 269
182 182 189 188 193 196 186 171 163 169 176 188 216 219 261 301 317 313 302 291 282 242 188 177 122 308 308 342 334 316 306 309 318 317 308 307 305 304 301 297 302 299 298
185 183 191 190 191 195 184 169 158 164 174 189 206 216 233 260 256 254 267 275 292 303 98 76 67 297 304 296 282 283 282 286 289 291 286 294 304 304 301 297 297 299 298
189 191 193 193 189 192 185 174 159 163 174 191 199 202 219 254 270 284 316 314 304 303 345 229 239 248 259 274 283 290 285 279 278 278 280 282 279 281 287 285 292 297 295
190 192 192 192 185 181 172 167 155 162 179 194 189 192 209 236 276 304 282 268 268 280 295 291 273 264 259 262 269 269 277 284 278 275 279 274 281 285 283 285 277 280 289
191 191 187 183 173 170 159 157 152 162 177 197 206 217 202 212 225 243 267 282 288 283 279 272 273 272 266 260 256 262 265 268 268 263 263 270 273 282 293 293 289 279 275
190 182 177 171 169 170 162 161 160 167 182 203 213 236 237 241 239 237 244 250 255 264 268 267 265 266 265 261 255 254 260 265 266 267 266 261 262 267 277 285 287 286 283
184 175 166 161 169 176 169 168 172 181 190 199 203 210 219 231 244 253 253 254 255 256 261 263 266 265 267 266 266 267 269 267 268 267 266 266 266 256 258 265 274 279 281
177 173 160 161 173 179 176 176 182 192 195 194 196 205 213 224 231 242 252 257 259 261 264 267 270 271 271 271 270 266 265 265 267 267 266 264 262 262 258 261 267 274 280
170 176 158 160 171 175 174 181 190 192 193 192 197 204 210 223 233 241 248 252 257 262 263 264 265 269 272 270 268 267 264 263 265 267 267 266 262 259 256 258 256 262 270
177 178 170 166 173 179 179 186 194 192 195 194 203 206 207 216 225 235 243 251 256 265 267 270 272 273 273 271 273 273 270 273 278 278 274 269 264 259 252 257 258 269 275
198 187 182 177 181 188 191 193 196 193 187 197 209 211 210 218 229 238 242 246 248 254 259 264 270 272 275 267 207 259 289 289 284 280 277 276 269 258 242 238 242 245 253
209 195 186 185 186 191 194 198 195 193 191 196 207 210 207 216 224 240 248 254 263 267 265 265 267 267 270 259 235 232 255 268 268 269 272 275 275 281 262 243 240 243 245
235 203 189 186 188 193 196 196 196 195 198 200 204 208 209 217 218 225 239 249 255 261 266 268 270 268 267 258 237 228 241 261 263 261 261 261 265 271 271 269 259 249 247
255 218 210 208 194 195 194 190 198 196 201 205 205 206 207 211 215 223 231 239 248 256 260 263 260 261 261 251 231 221 246 258 262 260 259 256 255 254 249 249 255 259 261
271 225 228 227 201 194 189 188 198 201 205 207 202 200 198 203 211 219 225 234 242 251 258 259 257 259 263 254 232 214 240 258 264 263 258 255 252 249 234 232 244 254 260
352 325 269 249 231 192 186 196 202 208 207 204 200 196 193 196 208 216 219 226 239 250 255 259 260 258 256 253 238 215 228 250 264 270 274 276 269 240 227 227 242 252 264
8 0 346 332 309 227 188 206 217 216 207 206 205 199 196 209 218 213 218 223 235 249 255 255 257 254 247 241 234 216 218 234 252 264 273 283 287 241 232 230 242 250 256
17 11 9 10 5 359 334 254 244 233 228 223 218 210 208 210 219 222 226 228 232 244 254 257 259 257 247 228 218 216 219 226 236 256 266 274 258 247 244 242 241 243 245
21 16 15 12 8 2 352 330 303 263 238 236 234 229 227 230 228 228 235 239 242 245 248 253 261 269 268 253 207 205 222 230 238 253 264 262 253 244 249 254 242 235 239
21 17 12 6 2 359 352 342 334 312 272 255 248 248 246 245 241 234 234 237 242 245 249 257 264 275 279 251 131 253 269 277 300 297 275 271 266 255 244 241 240 234 230
17 12 5 358 354 350 344 341 335 321 304 284 272 267 262 254 247 242 242 231 231 237 229 227 235 249 248 242 239 237 236 238 235 260 265 266 265 264 261 253 243 237 236
Height
1519 1522 1525 1528 1532 1534 1536 1539 1541 1543 1544 1545 1546 1547 1547 1546 1546 1545 1542 1541 1540 1539 1538 1538 1537 1538 1538 1538 1538 1538 1538 1538 1539 1539 1538 1537 1536 1536 1536 1537 1538 1539 1540
1519 1522 1525 1529 1531 1534 1536 1538 1540 1542 1543 1544 1545 1545 1545 1545 1545 1544 1542 1540 1539 1538 1538 1536 1536 1536 1536 1536 1536 1536 1536 1536 1537 1537 1536 1535 1535 1533 1533 1533 1534 1535 1536
1518 1521 1525 1529 1531 1533 1535 1537 1539 1541 1542 1543 1543 1544 1544 1544 1544 1543 1542 1540 1538 1537 1536 1535 1534 1533 1534 1534 1534 1534 1534 1534 1535 1535 1536 1535 1533 1532 1532 1532 1532 1532 1533
1518 1521 1525 1528 1530 1532 1534 1536 1537 1539 1540 1541 1541 1542 1542 1542 1542 1541 1540 1538 1537 1536 1535 1534 1533 1532 1532 1532 1532 1532 1532 1532 1532 1533 1534 1534 1534 1533 1531 1530 1530 1530 1530
1516 1520 1523 1526 1528 1531 1533 1534 1535 1537 1538 1538 1539 1539 1540 1540 1539 1538 1538 1537 1536 1535 1534 1533 1532 1531 1531 1531 1530 1529 1529 1529 1530 1530 1530 1531 1531 1531 1531 1529 1529 1528 1528
1514 1518 1521 1524 1527 1529 1531 1533 1533 1535 1535 1536 1537 1537 1537 1536 1536 1536 1535 1535 1535 1534 1533 1532 1531 1530 1530 1529 1528 1527 1527 1527 1527 1527 1527 1528 1528 1529 1528 1527 1526 1526 1525
1512 1516 1519 1522 1524 1527 1529 1531 1531 1532 1533 1534 1534 1534 1534 1534 1534 1533 1533 1533 1533 1533 1532 1531 1530 1529 1528 1527 1526 1526 1525 1525 1525 1524 1524 1525 1525 1525 1525 1525 1524 1523 1522
1509 1512 1516 1519 1521 1524 1526 1528 1529 1530 1531 1532 1532 1532 1532 1532 1532 1532 1531 1531 1531 1531 1530 1529 1527 1526 1525 1525 1524 1523 1523 1523 1522 1522 1522 1521 1521 1521 1522 1522 1521 1520 1519
1505 1509 1512 1515 1518 1521 1524 1526 1527 1528 1529 1529 1530 1529 1529 1529 1529 1529 1529 1528 1528 1528 1528 1526 1525 1524 1523 1522 1521 1520 1520 1520 1519 1519 1519 1518 1518 1518 1518 1518 1518 1518 1515
1502 1505 1509 1512 1515 1518 1521 1523 1524 1525 1526 1527 1527 1528 1527 1526 1526 1526 1526 1525 1525 1524 1523 1523 1522 1521 1520 1519 1518 1517 1517 1516 1515 1515 1514 1514 1514 1514 1513 1513 1513 1513 1512
1498 1501 1505 1509 1513 1516 1518 1520 1521 1523 1523 1524 1524 1525 1525 1524 1524 1523 1522 1522 1521 1520 1520 1519 1518 1517 1516 1515 1514 1513 1512 1512 1511 1511 1510 1510 1509 1509 1509 1508 1508 1508 1508
1494 1498 1502 1506 1510 1513 1515 1517 1518 1519 1520 1521 1521 1521 1521 1521 1520 1520 1519 1519 1518 1517 1516 1515 1514 1513 1512 1511 1510 1509 1508 1507 1507 1506 1505 1505 1504 1504 1504 1503 1503 1503 1503
1493 1496 1499 1503 1507 1510 1512 1514 1515 1516 1517 1517 1517 1517 1517 1517 1516 1516 1515 1515 1514 1513 1512 1511 1510 1509 1508 1507 1505 1504 1503 1502 1501 1501 1500 1499 1499 1499 1498 1498 1498 1497 1497
1490 1494 1497 1501 1504 1507 1509 1511 1512 1513 1514 1514 1514 1514 1514 1513 1513 1512 1511 1511 1510 1509 1507 1506 1505 1504 1503 1502 1501 1499 1498 1497 1496 1495 1495 1494 1494 1493 1493 1493 1492 1492 1492
1488 1492 1495 1498 1501 1503 1505 1507 1508 1509 1510 1510 1510 1510 1510 1509 1509 1508 1508 1507 1506 1505 1504 1502 1501 1500 1498 1497 1496 1494 1494 1492 1491 1490 1489 1488 1488 1488 1488 1488 1487 1487 1486
1485 1488 1491 1494 1497 1499 1501 1502 1503 1504 1505 1505 1506 1506 1506 1506 1505 1505 1504 1503 1501 1500 1499 1497 1496 1494 1493 1492 1490 1489 1488 1486 1485 1483 1482 1482 1482 1482 1481 1481 1481 1481 1481
1481 1483 1486 1489 1491 1494 1496 1497 1498 1499 1500 1500 1501 1501 1501 1501 1501 1500 1500 1499 1497 1496 1494 1492 1490 1488 1487 1486 1484 1483 1481 1479 1478 1477 1476 1476 1476 1477 1476 1475 1475 1474 1474
1478 1479 1481 1484 1486 1488 1490 1492 1493 1494 1494 1495 1495 1496 1496 1496 1496 1496 1495 1494 1492 1491 1489 1487 1485 1483 1481 1480 1478 1477 1475 1473 1472 1471 1470 1469 1469 1470 1470 1469 1468 1468 1467
1476 1477 1478 1480 1481 1482 1484 1486 1487 1488 1489 1489 1490 1490 1491 1491 1491 1490 1489 1488 1487 1485 1483 1481 1479 1477 1475 1474 1472 1471 1469 1467 1466 1465 1464 1464 1463 1463 1463 1463 1462 1461 1461
1473 1474 1475 1476 1477 1477 1479 1480 1480 1482 1482 1483 1484 1484 1485 1485 1485 1484 1483 1482 1481 1479 1477 1475 1473 1472 1470 1468 1467 1466 1464 1462 1461 1460 1459 1459 1458 1457 1457 1456 1456 1455 1454
1471 1472 1472 1472 1473 1473 1474 1475 1475 1476 1477 1479 1479 1479 1478 1478 1478 1478 1477 1476 1475 1473 1471 1469 1467 1466 1464 1462 1461 1460 1458 1457 1456 1455 1454 1453 1452 1451 1451 1450 1450 1449 1448
1469 1469 1469 1469 1470 1470 1470 1470 1471 1472 1473 1474 1474 1473 1473 1472 1472 1472 1471 1470 1469 1467 1465 1463 1461 1459 1458 1456 1455 1454 1453 1452 1450 1448 1447 1447 1446 1445 1444 1443 1443 1442 1442
1470 1469 1468 1468 1468 1468 1468 1468 1468 1469 1469 1469 1468 1467 1466 1465 1465 1464 1463 1462 1462 1460 1459 1458 1456 1454 1453 1451 1449 1448 1447 1445 1444 1442 1441 1440 1439 1438 1437 1436 1435 1435 1434
1472 1471 1469 1468 1468 1467 1467 1466 1466 1465 1464 1464 1463 1462 1461 1459 1458 1457 1457 1456 1455 1454 1453 1452 1450 1449 1447 1446 1443 1442 1440 1439 1438 1436 1434 1433 1432 1431 1429 1428 1427 1426 1426
1474 1473 1471 1470 1468 1466 1465 1464 1462 1461 1460 1458 1457 1457 1455 1453 1452 1450 1449 1448 1448 1447 1446 1445 1444 1442 1440 1440 1438 1436 1435 1433 1432 1429 1427 1426 1425 1423 1422 1420 1420 1419 1419
1476 1474 1472 1471 1469 1466 1464 1462 1460 1458 1456 1454 1453 1451 1450 1447 1445 1443 1441 1439 1439 1438 1437 1437 1436 1434 1433 1432 1430 1429 1428 1426 1424 1422 1420 1418 1417 1416 1415 1414 1413 1413 1412